DUCHIFAT-3

Last updated on Mon Nov 03 2025 00:03:21 GMT+0000 (Coordinated Universal Time)

1 44854U 19089C 25306.55804956 .00203721 00000+0 14411-2 0 9997 2 44854 36.9309 134.9271 0009165 345.1489 14.9005 15.72394377325758
UTC large
Height (km)
Speed (km/s)
/
Latitude / Longitude
Inclination (degrees)
Orbital Period (minutes)
Azimuth
Elevation
Range (km)
Doppler Factor

Next 0 passes for location: London (51.5072 / 0.1276)

Sorry there are no passes over London.